Regional Weather Roundup
Issued by NWS

Home | Current Version | Previous Version | Graphics & Text | Print | Product List | Glossary On
Versions: 1 2 3 4 5 6 7 8 9 10 11 12 13 14 15 16 17 18 19 20 21 22 23 24 25 26 27 28 29 30 31 32 33 34 35 36 37 38 39 40 41 42 43 44 45 46 47 48 49 50
000
ASUS45 KPSR 040800
RWRAZ

ARIZONA HOURLY REGIONAL WEATHER ROUNDUP
NATIONAL WEATHER SERVICE PHOENIX AZ
100 AM MST FRI SEP 04 2015

NOTE: FAIR INDICATES FEW OR NO CLOUDS BELOW 12,000 FEET WITH NO
SIGNIFICANT WEATHER AND/OR OBSTRUCTIONS TO VISIBILITY.

AZZ001>003-036-040900-
NORTHWEST ARIZONA

CITY           SKY/WX    TMP DP  RH WIND       PRES   REMARKS
KINGMAN        CLEAR     73  56  54 SE12G22   29.92R
$$

AZZ004>008-015-016-018-040900-
NORTH CENTRAL ARIZONA

CITY           SKY/WX    TMP DP  RH WIND       PRES   REMARKS
WILLIAMS       PTCLDY    57  52  82 S9        30.20F
PRESCOTT       PTCLDY    63  57  81 SE9       30.07S
FLAGSTAFF      NOT AVBL
PAYSON         CLEAR     63  57  82 NE5       30.10S
PAGE           PTCLDY    73  52  47 W7        29.97R
$$

AZZ009>014-017-040900-
NORTHEAST ARIZONA

CITY           SKY/WX    TMP DP  RH WIND       PRES   REMARKS
WINSLOW        NOT AVBL
SAINT JOHNS    CLOUDY    59  57  93 CALM      30.12F
WINDOW ROCK    CLOUDY    59  47  64 CALM      30.18F
SHOW LOW       PTCLDY    57  54  88 S6        30.17F
$$

AZZ023-040900-
GREATER PHOENIX AREA

CITY           SKY/WX    TMP DP  RH WIND       PRES   REMARKS
PHOENIX        PTCLDY    79  65  62 CALM      29.83S
DEER VALLEY    PTCLDY    78  60  53 CALM      29.85F
SCOTTSDALE     PTCLDY    78  61  55 CALM      29.87S
$$

AZZ027-028-040900-
SOUTHWEST MARICOPA COUNTY AND PINAL COUNTY

CITY           SKY/WX    TMP DP  RH WIND       PRES   REMARKS
CASA GRANDE    CLEAR     72  64  78 CALM      29.85S
GILA BEND      FAIR      78  61  55 E7        29.80R
$$

AZZ503-504-507>509-040900-
SOUTHEAST ARIZONA

CITY           SKY/WX    TMP DP  RH WIND       PRES   REMARKS
TUCSON         CLEAR     70  64  81 E3        29.95F
DAVIS-MONTHAN  CLEAR     68  67  98 S3        29.94S
NOGALES        MOCLDY    63  60  90 CALM      30.02F
SIERRA VISTA   CLOUDY    61  58  91 W6        30.06F
SAFFORD        PTCLDY    69  60  73 E7        29.95F
$$

AZZ020-021-025-026-031-040900-
SOUTHWEST ARIZONA

CITY           SKY/WX    TMP DP  RH WIND       PRES   REMARKS
YUMA           NOT AVBL
$$

CAZ031-033-041-043-047-048-061-040900-
SOUTHERN CALIFORNIA

CITY           SKY/WX    TMP DP  RH WIND       PRES   REMARKS
DOWNTOWN L.A.  CLEAR     67  56  67 CALM      29.86S
L.A. AIRPORT   MOCLDY    68  57  68 CALM      29.86F
SAN DIEGO      MOCLDY    70  58  65 SW3       29.88F
BURBANK        CLOUDY    67  56  67 SW6       29.86F
ONTARIO        CLEAR     63  56  78 SW5       29.88R
RIVERSIDE      CLEAR     64  57  78 W3        29.87F
PALM SPRINGS   CLEAR     81  51  35 N7        29.74R
EL CENTRO NAS  CLEAR     86  73  65 S8        29.71S
IMPERIAL       CLEAR     88  75  65 SE10      29.69S
BLYTHE         CLEAR     86  66  51 S14       29.74S
$$

NVZ020-UTZ003-040900-
SOUTHERN NEVADA-UTAH

CITY           SKY/WX    TMP DP  RH WIND       PRES   REMARKS
LAS VEGAS      NOT AVBL
SALT LAKE CITY PTCLDY    76  35  22 S18       29.80R
$$

NMZ009-TXZ055-040900-
NEW MEXICO-WEST TEXAS

CITY           SKY/WX    TMP DP  RH WIND       PRES   REMARKS
ALBUQUERQUE    MOCLDY    71  49  45 SE6       30.08F
EL PASO        NOT AVBL
$$


........................KEY........................
SKY/WX - SKY CONDITION/WEATHER
TMP    - TEMPERATURE IN FAHRENHEIT
DP     - DEW POINT IN FAHRENHEIT
RH     - RELATIVE HUMIDITY IN PERCENT
WIND   - DIRECTION AND SPEED IN MILES PER HOUR (MPH)
VRB    - VARIABLE WIND DIRECTION
PRES   - MEAN SEA LEVEL PRESSURE IN INCHES OF MERCURY
         F - FALLING PRESSURE   R - RISING PRESSURE
         S - STEADY PRESSURE
VSB    - VISIBILITY IN MILES
HX     - HEAT INDEX IN FAHRENHEIT
WCI    - WIND CHILL INDEX IN FAHRENHEIT
TC     - TEMPERATURE IN CELSIUS WHICH IS ALSO KNOWN AS
         TEMPERATURE IN CENTIGRADE
AFB    - AIR FORCE BASE
         LUKE AFB IS LUKE AIR FORCE BASE
         DAVIS-MONTHAN IS DAVIS-MONTHAN AIR FORCE BASE
NAS    - NAVAL AIR STATION
         EL CENTRO NAS IS EL CENTRO NAVAL AIR STATION
N/A    - NOT AVAILABLE




USA.gov is the U.S. government's official web portal to all federal, state and local government web resources and services.